Starlink 35737

operational
NORAD ID: 66219 Int'l Des: 2025-244 Owner: SPXS Country: US Constellation: starlink
NOTLE

Starlink 35737について

説明を読み込み中...

リアルタイム位置

3D地球を読み込み中...

次回通過

高度履歴

Altitude vs Time

uPlot chart will show altitude changes over time

軌道要素

1 66219U 25244P 25350.22313258 .00033365 00000-0 83988-3 0 9991
2 66219 53.1615 259.5055 0001463 72.8157 287.3008 15.39640951 8854
Epoch: Dec 16, 2025 • Age: 23 hours

現在のステータス

高度 455.6 km
速度 7.64 km/s
衛星直下点 -26.77°S, 50.29°W
打ち上げ日 Oct 28, 2025
運用期間 0.1 years
タイプ internet

技術仕様

分類 Payload
質量 575.00 kg
乾燥質量 530.00 kg
総質量 575.00 kg
長さ 0.30 m
直径 4.10 m
スパン 29.00 m
形状 Box + pan
製造者 SPXS
バスタイプ Starlink V2MO
フェーズステータス In Orbit
所有者/国 SPXS/US

大規模コンステレーション

Loading constellations...